Back to catalog

SL-12 DEB

LostHEO
NORAD 29407·DEBRIS·🇷🇺 Russia

Launched May 31, 1989 from Baikonur Cosmodrome

Loading…

Next Passes (next 24 hours)

TLE

StaleSource: Space-Track

Epoch: May 5, 2021, 13:53 UTC

1 29407U 89039BK  21125.57882387 -.00000015  00000-0  00000+0 0  9996
2 29407  59.6897 278.2829 4198821 189.2938 159.6063  5.33600792263847

Track SL-12 DEB in real time with AllMySat

Download on the App Store